Location: Éparcy
(49.8754°N, 4.0594°E)
Time: 05:38:56
(UTC+00:00)

Daily predictions for brighter satellites

Satellite Brightness Start Highest point End
(mag) Time Altitude Azimuth Time Altitude Azimuth Time Altitude Azimuth
ACS3 Solar Sail 3.8 02:21:50 10° NNE 02:24:02 21° NE 02:24:02 21° NE
COSMOS 2428 4.1 03:21:07 32° NNE 03:21:07 32° NNE 03:24:05 10° NNE
CZ-2C R/B 3.8 03:17:21 10° NNE 03:21:33 37° E 03:21:33 37° E
Cosmos 2016 Rocket 4.5 03:23:28 10° N 03:29:47 58° ENE 03:36:00 10° SSE
USA 267 4.1 03:23:48 10° ENE 03:29:57 42° SE 03:31:27 37° SSE
Cosmos 2278 Rocket 4.5 03:37:43 13° SSE 03:37:43 13° SSE 03:38:13 10° SSE
NOSS 3-1 (A) 3.8 03:37:27 50° ENE 03:37:27 50° ENE 03:41:51 10° NE
Cosmos 2237 Rocket 2.6 03:37:34 58° E 03:37:34 58° E 03:42:48 10° NE
ARGOS 3.6 03:35:28 10° NNE 03:40:21 61° ENE 03:40:21 61° ENE
CENTAUR R/B 3.8 03:39:59 32° NNW 03:43:33 51° NNE 03:52:25 10° ESE
Cosmos 2369 Rocket 3.8 03:41:31 21° N 03:44:16 30° NE 03:49:16 10° ESE
ADEOS II 4.5 03:40:17 10° N 03:40:37 12° N 03:40:37 12° N
Cosmos 2360 Rocket 4.3 03:52:38 15° N 03:52:38 15° N 03:54:14 10° N
SJ 16-02 2.6 03:51:39 38° E 03:51:39 38° E 03:54:57 10° SE
Cosmos 2322 Rocket 4.3 03:57:46 15° N 03:57:46 15° N 03:59:23 10° N
ADEOS Rocket 3.5 03:49:55 10° N 03:55:46 56° NW 03:55:46 56° NW
Cosmos 2333 Rocket 4.3 03:59:30 14° N 03:59:30 14° N 04:01:10 10° N
SL-16 R/B 4.4 04:08:31 11° N 04:08:31 11° N 04:09:31 10° N
USA 234 3.2 04:01:29 10° ESE 04:08:04 87° NNE 04:09:48 54° NW
ACS3 Solar Sail 2.7 04:04:45 10° N 04:08:09 32° NNW 04:08:09 32° NNW
COSMOS 2455 4.5 04:12:21 20° NNW 04:12:21 20° NNW 04:16:15 10° NNE
Cosmos 371 Rocket 3.6 04:11:29 49° N 04:12:35 64° ENE 04:17:23 10° SE
USA 306 4.3 04:15:46 28° E 04:15:46 28° E 04:17:54 10° ENE
CZ-3 R/B 4.4 04:06:00 13° SW 04:15:15 20° S 04:21:12 10° SE
Cosmos 1864 Rocket 4.4 04:09:42 10° NNW 04:15:54 61° W 04:22:07 10° S
Cosmos 2292 Rocket 4.1 04:16:36 31° S 04:19:14 87° WNW 04:25:45 10° N
Cosmos 304 Rocket 3.8 04:20:02 55° N 04:21:02 77° ENE 04:25:47 10° SSE
Cosmos 2061 Rocket 3.9 04:15:35 10° N 04:21:50 88° E 04:28:02 10° S
Gbstr 26 Del rocket 3.3 04:22:01 67° NW 04:22:27 72° N 04:28:23 10° E
Cosmos 1656 Rocket 3.7 04:20:09 37° NNW 04:22:31 82° ENE 04:28:11 10° SSE
Meteor 1-24 Rocket 3.8 04:23:19 53° NW 04:23:19 53° NW 04:27:59 10° N
Lacrosse 5 rocket 2.7 04:23:30 26° NE 04:23:30 26° NE 04:25:44 10° ENE
Lacrosse 4 Rocket 3.9 04:22:07 11° N 04:23:44 14° NNE 04:25:48 10° ENE
Cosmos 2219 Rocket 4.0 04:26:24 17° NNW 04:26:24 17° NNW 04:29:00 10° N
Aureole 3 Rocket 4.4 04:22:24 10° N 04:27:19 58° ENE 04:34:09 10° SSE
Cosmos 1725 Rocket 4.0 04:23:58 10° NNW 04:30:05 53° W 04:36:10 10° SSW
Cosmos 1869 3.6 04:31:06 53° SE 04:31:06 53° SE 04:33:57 10° SSE
Cosmos 2233 Rocket 3.9 04:26:08 10° NNW 04:32:26 72° W 04:38:38 10° S
Cosmos 2251 Rocket 3.7 04:36:55 49° WSW 04:36:55 49° WSW 04:41:56 10° S
Helios 1A Rocket 3.2 04:34:35 10° SSE 04:37:51 51° ENE 04:38:59 34° NNE
NOSS 3-1 (C) 4.0 04:37:44 32° NW 04:38:14 33° NNW 04:43:53 10° NE
Cosmos 1420 Rocket 3.9 04:37:58 36° SW 04:40:07 71° WNW 04:45:27 10° NNE
Cosmos 1624 Rocket 4.1 04:35:07 10° SSW 04:40:16 74° ESE 04:45:27 10° NNE
SL-16 R/B 2.9 04:35:04 10° S 04:40:35 55° ESE 04:46:08 10° NE
H-2A R/B 4.1 04:37:06 10° N 04:37:38 12° NNW 04:37:38 12° NNW
Cosmos 2242 Rocket 4.0 04:38:07 10° S 04:42:27 62° E 04:46:50 10° NNE
PAYLOAD A 4.1 04:37:42 10° N 04:42:58 58° WNW 04:45:44 27° SW
SL-08 RB Rocket 3.9 04:40:02 10° N 04:44:01 49° NW 04:44:01 49° NW
Cosmos 1812 2.7 04:46:26 51° SE 04:46:26 51° SE 04:48:50 10° SSE
NOSS 0 Rocket 4.4 04:48:17 36° WNW 04:49:24 39° NW 04:55:11 10° NNE
Cosmos 2346 Rocket 4.4 04:45:26 10° S 04:51:34 88° WNW 04:57:41 10° N
Cosmos 1850 Rocket 4.4 04:54:39 10° NNW 04:59:48 61° ENE 05:04:54 10° SE
CZ-2C R/B 3.0 04:55:29 10° N 05:00:05 36° WNW 05:00:45 34° W
Cosmos 1939 Rocket 3.0 04:57:37 10° N 05:01:05 44° WNW 05:01:05 44° WNW
COSMOS 2428 3.9 05:03:07 23° NW 05:03:23 23° NW 05:07:50 10° NNE
Meteor 2-5 Rocket 4.4 05:02:07 30° W 05:03:25 33° WNW 05:08:38 10° N
Cosmos 1980 4.3 05:04:29 30° W 05:06:02 36° NW 05:11:15 10° NNE
Cosmos 2084 4.4 05:03:54 20° NNW 05:06:14 38° NE 05:10:00 10° ESE
SJ-11-01 4.2 05:01:50 10° N 05:06:30 65° WNW 05:11:09 10° SSW
USA 229 DEB 3.9 05:06:03 10° SSW 05:11:53 65° SE 05:18:30 10° NE
Cosmos 2263 4.3 05:06:19 11° NNW 05:12:02 82° ENE 05:17:48 10° SSE
USA 229 3.9 05:06:17 10° SSW 05:12:06 64° SE 05:18:42 10° NE
NOSS 3-2 (A) 4.3 05:06:31 15° NW 05:12:33 64° NE 05:21:04 10° ESE
USA 267 3.2 05:06:45 10° ENE 05:13:18 80° NNW 05:18:49 15° WSW
Cosmos 676 Rocket 4.4 05:14:56 20° NW 05:18:08 42° WSW 05:22:59 10° S
ARGOS 4.2 05:16:23 10° N 05:20:41 25° WNW 05:21:49 23° WNW
Cosmos 2237 Rocket 3.0 05:19:25 24° W 05:21:39 31° NW 05:26:38 10° NNE
Cosmos 2297 3.6 05:17:58 12° NNW 05:23:14 69° WSW 05:28:48 10° SSE
Okean 2 Rocket 3.2 05:18:58 10° N 05:23:22 78° E 05:27:43 10° SSE
Aureole 3 4.2 05:20:15 10° SSW 05:25:51 48° WNW 05:30:32 10° N
NOSS 3-1 (A) 4.0 05:24:50 22° WNW 05:27:26 33° NNW 05:33:07 10° NE
Cosmos 2369 Rocket 2.2 05:23:18 11° NW 05:28:41 62° WSW 05:34:17 10° SSE
SJ 16-02 2.4 05:28:15 23° W 05:28:47 23° W 05:32:11 10° SSW
Cosmos 2056 Rocket 3.8 05:23:54 10° SW 05:29:07 48° WNW 05:34:21 10° NNE
SKYMED 2 4.0 05:26:25 10° SSW 05:30:28 38° W 05:34:33 10° NNW
Cosmos 1943 4.1 05:26:06 10° S 05:31:30 51° ESE 05:36:55 10° NE
ATLAS 3B R/B 3.1 05:25:40 10° SW 05:33:15 87° SE 05:41:12 10° NE
CENTAUR R/B 3.4 05:27:06 12° NW 05:34:48 69° SW 05:44:07 10° SSE
COSMO-SKYMED 1 2.7 05:31:47 10° S 05:35:44 44° W 05:39:43 10° NNW
IRS-1D 3.7 05:32:56 10° N 05:37:40 46° WNW 05:42:20 10° SW
Cosmos 292 Rocket 4.3 05:36:20 10° NNW 05:41:07 61° ENE 05:45:50 10° SE
USA 306 2.6 05:41:00 21° W 05:43:04 54° NNW 05:46:56 10° ENE
BREEZE-M DEB (TANK) 4.1 05:41:29 10° SSW 05:43:54 28° SSE 05:48:10 10° E
BREEZE-M DEB (TANK) 4.3 05:34:53 13° W 05:44:14 60° SSW 05:48:04 10° ESE
DMSP B5D1-3 4.5 05:39:55 10° S 05:45:01 76° WSW 05:50:10 10° NNW
Cosmos 1025 Rocket 3.0 05:40:48 10° S 05:45:10 90° W 05:49:34 10° N
Cosmos 1674 Rocket 3.6 05:45:53 10° SSW 05:50:15 60° WNW 05:54:39 10° N
Cosmos 968 Rocket 3.9 05:45:52 10° NW 05:50:50 44° WSW 05:55:46 10° S
USA 234 4.0 05:45:37 10° SSE 05:51:33 36° SW 05:57:09 12° WNW
ACS3 Solar Sail 3.6 05:51:35 10° NW 05:51:56 10° NW 05:52:15 10° NW
Cosmos 1741 Rocket 4.2 05:48:44 10° NNW 05:53:56 55° WSW 05:59:05 10° S
CZ-4 R/B 4.4 05:52:31 10° N 05:56:53 34° WNW 06:01:10 10° SW
Cosmos 1400 Rocket 3.5 05:54:35 10° NNW 05:57:49 29° W 06:01:01 10° SSW
Cosmos 1484 Rocket 2.6 05:55:20 10° N 05:58:48 55° WNW 06:02:15 10° SSW
NOSS 2-2 (E) 3.6 05:56:12 10° NW 05:59:53 73° NE 06:04:54 10° SE
Lacrosse 5 rocket 0.7 05:57:09 13° WNW 06:00:03 80° SW 06:03:21 10° SE
Cosmos 2221 Rocket 3.6 05:55:54 10° SSW 06:00:26 72° WNW 06:04:59 10° N
Lacrosse 4 Rocket 1.6 05:58:27 10° NNW 06:02:25 63° NE 06:06:18 10° SE
Cosmos 1110 Rocket 4.1 05:59:38 10° SW 06:04:51 59° WNW 06:10:07 10° NNE
Cosmos 2151 Rocket 4.3 06:01:35 10° NNW 06:05:36 33° W 06:09:35 10° SSW
Tsikada Rocket 4.4 05:59:29 10° S 06:05:47 72° E 06:12:11 10° NNE
Cosmos 1455 Rocket 3.1 06:01:45 10° N 06:06:07 86° E 06:10:28 10° S
Thor Agena Rocket 3.7 06:02:34 10° NNE 06:07:49 80° ESE 06:12:57 10° SSW
Cosmos 1302 Rocket 4.4 06:03:23 10° SSW 06:08:31 69° ESE 06:13:41 10° NNE
Gbstr 26 Del rocket 3.8 06:04:03 11° WNW 06:09:15 88° SSW 06:15:51 10° ESE
Helios 1A Rocket 4.4 06:09:20 10° WSW 06:10:50 12° W 06:12:21 10° WNW
Meteor 2-17 Rocket 4.5 06:05:27 10° SSW 06:11:26 60° WNW 06:17:30 10° N
Sich 1 Rocket 4.0 06:08:39 10° NNW 06:12:56 42° W 06:17:09 10° SSW
Cosmos 1818 4.4 06:10:01 10° SSW 06:15:20 58° ESE 06:20:41 10° NE
Okean 1 Rocket 3.8 06:19:24 10° NNW 06:23:17 32° W 06:27:06 10° SSW
SL-16 R/B 2.9 06:19:52 10° WSW 06:24:58 33° NW 06:30:06 10° NNE
